Starlink 3305

operational
NORAD ID: 50166 Int'l Des: 2021-125 Owner: SPXS Country: US Constellation: starlink
LEOCIRCULAR

About Starlink 3305

Description loading...

Live Position

Loading 3D Globe...

Upcoming Passes

Altitude History

Altitude vs Time

uPlot chart will show altitude changes over time

Two-Line Element Set

1 50166U 21125L 25304.87041624 -.00000307 00000-0 -12195-5 0 9990
2 50166 53.2149 107.3436 0001707 83.2007 276.9179 15.08839389217143
Epoch: Oct 31, 2025 • Age: 25 hours

Current Status

Altitude 558.0 km
Velocity 7.58 km/s
Sub-Earth Point -49.66°S, 29.95°E
Launch Date Dec 18, 2021
Age 3.8 years
Type internet

Technical Details

Classification Payload
Mass 290.00 kg
Dry Mass 270.00 kg
Total Mass 290.00 kg
Length 0.20 m
Diameter 2.80 m
Span 9.00 m
Shape Box + pan
Manufacturer SPXS
Bus Type Starlink
Phase Status In Orbit
Owner/State SPXS/US

Large Constellations

Loading constellations...